User: anonymous   Login
Location: Downe
(51.3167°N, 0.0500°E)
Time: 22:50:33
(UTC+00:00)
Language:

Cosmos 1400 Rocket - Orbit

View from above orbital plane
View from above orbital plane
View from above satellite
View from above satellite

Ground track
Ground track

The orbit data is extracted from the following two-line orbital elements,

1 13403U 82079B   20027.52625580  .00000050  00000-0  16976-5 0  9990
2 13403  81.1692 255.7531 0033362  12.3713 347.8321 15.07116944 40440
Epoch (UTC): 27 January 2020 12:37:48
Eccentricity: 0.0033362
inclination: 81.1692°
perigee height: 522 km
apogee height: 568 km
right ascension of ascending node: 255.7531°
argument of perigee: 12.3713°
revolutions per day: 15.07116944
mean anomaly at epoch: 347.8321°
orbit number at epoch: 4044

The dashed part of the orbit path shows where the satellite is in the earth's shadow,  

DLR